�������l�o���
Date,Time,MP-1(��Sv/h),MP-2(��Sv/h),MP-3(��Sv/h),MP-4(��Sv/h),MP-5(��Sv/h),MP-6(��Sv/h),MP-7(��Sv/h),MP-8(��Sv/h),����,����(m/s),���J
2013/02/02,00:00,3.1,5.7,6.0,6.1,6.2,2.8,6.5,4.1,��쐼,9.9,��
2013/02/02,00:10,3.1,5.7,6.0,6.1,6.2,2.8,6.5,4.1,��쐼,8.6,��
2013/02/02,00:20,3.1,5.7,6.0,6.1,6.2,2.8,6.5,4.1,��쐼,8.0,��
2013/02/02,00:30,3.1,5.7,6.0,6.1,6.2,2.8,6.5,4.1,��쐼,8.0,��
2013/02/02,00:40,3.1,5.7,6.0,6.1,6.2,2.8,6.5,4.1,��쐼,8.5,�L
2013/02/02,00:50,3.1,5.7,6.0,6.1,6.2,2.8,6.5,4.1,�쐼,8.2,�L
2013/02/02,01:00,3.1,5.7,6.0,6.1,6.2,2.8,6.5,4.1,��쐼,7.7,�L
2013/02/02,01:10,3.1,5.7,6.0,6.1,6.2,2.8,6.5,4.1,��쐼,6.1,�L
2013/02/02,01:20,3.1,5.6,6.0,6.1,6.2,2.8,6.5,4.1,��쐼,6.3,�L
2013/02/02,01:30,3.1,5.6,6.0,6.0,6.2,2.8,6.5,4.1,��쐼,7.1,�L
2013/02/02,01:40,3.1,5.6,5.9,6.0,6.2,2.8,6.5,4.1,��,6.9,�L
2013/02/02,01:50,3.1,5.6,5.9,6.0,6.2,2.8,6.5,4.1,��쐼,6.1,�L
2013/02/02,02:00,3.1,5.6,5.9,6.0,6.2,2.8,6.5,4.1,��,5.5,�L
2013/02/02,02:10,3.1,5.6,6.0,6.0,6.2,2.8,6.5,4.1,��,4.6,�L
2013/02/02,02:20,3.1,5.6,6.0,6.0,6.2,2.8,6.5,4.1,��,5.1,�L
2013/02/02,02:30,3.1,5.6,6.0,6.0,6.2,2.8,6.5,4.1,��,5.2,�L
2013/02/02,02:40,3.1,5.6,6.0,6.0,6.2,2.8,6.5,4.1,��,5.8,�L
2013/02/02,02:50,3.1,5.6,6.0,6.0,6.2,2.8,6.5,4.1,��,5.5,�L
2013/02/02,03:00,3.1,5.6,6.0,6.0,6.2,2.8,6.5,4.1,��,6.5,�L
2013/02/02,03:10,3.1,5.6,6.0,6.0,6.2,2.8,6.5,4.1,��쐼,6.4,�L
2013/02/02,03:20,3.1,5.6,6.0,6.0,6.2,2.8,6.5,4.1,��쐼,7.9,�L
2013/02/02,03:30,3.1,5.6,6.0,6.0,6.1,2.8,6.5,4.1,��쐼,7.5,�L
2013/02/02,03:40,3.1,5.6,6.0,6.0,6.1,2.8,6.5,4.1,��,8.2,�L
2013/02/02,03:50,3.1,5.6,6.0,6.0,6.2,2.8,6.5,4.1,��,9.6,�L
2013/02/02,04:00,3.1,5.6,6.0,6.0,6.2,2.8,6.5,4.1,��,9.6,�L
2013/02/02,04:10,3.1,5.6,6.0,6.0,6.2,2.8,6.5,4.1,��,10.4,�L
2013/02/02,04:20,3.1,5.6,6.0,6.0,6.1,2.8,6.5,4.1,��,10.1,�L
2013/02/02,04:30,3.1,5.6,6.0,6.0,6.2,2.8,6.5,4.1,��,10.2,��
2013/02/02,04:40,3.1,5.6,6.0,6.0,6.2,2.8,6.5,4.1,��,10.4,��
2013/02/02,04:50,3.1,5.6,6.0,6.0,6.2,2.8,6.5,4.1,��,9.9,��
2013/02/02,05:00,3.1,5.6,6.0,6.0,6.2,2.8,6.5,4.1,��,10.4,��
2013/02/02,05:10,3.1,5.6,6.0,6.0,6.2,2.8,6.5,4.1,��,10.7,��
2013/02/02,05:20,3.1,5.6,6.0,6.0,6.2,2.8,6.5,4.1,��,10.4,��
2013/02/02,05:30,3.1,5.6,6.0,6.0,6.2,2.8,6.5,4.1,��,10.4,��
2013/02/02,05:40,3.1,5.6,6.0,6.0,6.2,2.8,6.5,4.1,��,10.2,��
2013/02/02,05:50,3.1,5.6,6.0,6.0,6.2,2.8,6.5,4.1,��,11.0,��
2013/02/02,06:00,3.1,5.6,6.0,6.1,6.2,2.8,6.5,4.1,��,11.2,��
2013/02/02,06:10,3.1,5.6,6.0,6.0,6.2,2.8,6.5,4.1,��,11.0,��
2013/02/02,06:20,3.1,5.6,6.0,6.1,6.2,2.8,6.5,4.1,��,11.6,��
2013/02/02,06:30,3.1,5.6,6.0,6.1,6.2,2.8,6.5,4.1,��,9.1,��
2013/02/02,06:40,3.1,5.6,6.0,6.1,6.2,2.8,6.5,4.1,��,9.9,��
2013/02/02,06:50,3.1,5.6,6.0,6.1,6.2,2.8,6.5,4.1,��,8.5,��
2013/02/02,07:00,3.1,5.6,6.0,6.1,6.2,2.8,6.5,4.1,��,8.8,��
2013/02/02,07:10,3.1,5.6,6.0,6.1,6.2,2.8,6.5,4.1,��,8.9,��
2013/02/02,07:20,3.1,5.6,6.0,6.1,6.2,2.8,6.5,4.1,��,8.3,��
2013/02/02,07:30,3.1,5.6,6.0,6.1,6.2,2.8,6.5,4.1,��,8.0,��
2013/02/02,07:40,3.1,5.6,6.1,6.1,6.2,2.8,6.5,4.1,��,7.1,��
2013/02/02,07:50,3.1,5.6,6.1,6.1,6.2,2.8,6.5,4.1,��,7.4,��
2013/02/02,08:00,3.1,5.6,6.1,6.1,6.2,2.8,6.5,4.1,��,6.0,��
2013/02/02,08:10,3.1,5.6,6.1,6.1,6.2,2.8,6.5,4.1,��,6.1,��
2013/02/02,08:20,3.1,5.6,6.1,6.1,6.2,2.8,6.5,4.1,��,5.3,��
2013/02/02,08:30,3.1,5.6,6.1,6.1,6.2,2.8,6.5,4.1,��,5.5,��
2013/02/02,08:40,3.1,5.6,6.1,6.1,6.2,2.8,6.5,4.1,��,4.6,��
2013/02/02,08:50,3.1,5.6,6.1,6.1,6.2,2.8,6.5,4.1,��,4.7,�L
2013/02/02,09:00,3.1,5.6,6.1,6.1,6.2,2.8,6.5,4.1,��,4.3,�L
2013/02/02,09:10,3.1,5.6,6.1,6.1,6.2,2.8,6.5,4.1,��,4.5,�L
2013/02/02,09:20,3.1,5.6,6.1,6.1,6.2,2.8,6.5,4.1,��,4.1,��
2013/02/02,09:30,3.1,5.6,6.1,6.1,6.2,2.8,6.5,4.1,��,4.4,��
2013/02/02,09:40,3.1,5.6,6.1,6.1,6.2,2.8,6.5,4.1,��,3.8,��
2013/02/02,09:50,3.1,5.6,6.1,6.1,6.2,2.8,6.5,4.1,��,4.4,��
2013/02/02,10:00,3.1,5.6,6.1,6.1,6.2,2.8,6.5,4.1,��,3.4,��
2013/02/02,10:10,3.1,5.6,6.1,6.1,6.2,2.8,6.5,4.1,��,3.2,��
2013/02/02,10:20,3.1,5.6,6.1,6.1,6.2,2.8,6.5,4.1,��,2.0,�L
2013/02/02,10:30,3.1,5.6,6.1,6.1,6.2,2.8,6.5,4.1,��,2.1,�L
2013/02/02,10:40,3.1,5.6,6.1,6.1,6.2,2.8,6.5,4.1,�쐼,0.7,�L
2013/02/02,10:50,3.1,5.6,6.1,6.1,6.2,2.8,6.5,4.1,���쐼,0.9,��
2013/02/02,11:00,3.1,5.6,6.1,6.1,6.2,2.8,6.5,4.1,-,CALM,��
2013/02/02,11:10,3.1,5.6,6.1,6.1,6.2,2.8,6.5,4.1,��쐼,1.2,��
2013/02/02,11:20,3.1,5.6,6.1,6.1,6.2,2.8,6.5,4.1,��,2.0,��
2013/02/02,11:30,3.1,5.6,6.1,6.1,6.2,2.8,6.5,4.1,��,3.3,��
2013/02/02,11:40,3.1,5.6,6.2,6.1,6.2,2.8,6.5,4.1,��쐼,3.3,��
2013/02/02,11:50,3.1,5.6,6.2,6.1,6.2,2.8,6.5,4.1,��쐼,3.1,��
2013/02/02,12:00,3.1,5.6,6.2,6.1,6.2,2.8,6.5,4.1,��쐼,4.3,��
2013/02/02,12:10,3.1,5.6,6.2,6.1,6.2,2.8,6.5,4.1,��쐼,3.5,��
2013/02/02,12:20,3.1,5.7,6.2,6.1,6.2,2.8,6.5,4.1,��쐼,5.8,��
2013/02/02,12:30,3.2,5.7,6.2,6.1,6.2,2.8,6.5,4.1,�쐼,5.5,��
2013/02/02,12:40,3.2,5.7,6.2,6.1,6.2,2.8,6.5,4.1,��쐼,6.4,��
2013/02/02,12:50,3.2,5.7,6.2,6.1,6.2,2.8,6.5,4.1,��쐼,5.5,��
2013/02/02,13:00,3.2,5.7,6.2,6.1,6.2,2.8,6.5,4.1,��쐼,4.7,��
2013/02/02,13:10,3.1,5.7,6.2,6.1,6.2,2.8,6.5,4.1,�쐼,4.6,��
2013/02/02,13:20,3.2,5.7,6.2,6.1,6.2,2.8,6.5,4.1,���쐼,7.4,��
2013/02/02,13:30,3.2,5.7,6.3,6.1,6.2,2.8,6.5,4.1,���쐼,7.7,��
2013/02/02,13:40,3.2,5.7,6.3,6.1,6.3,2.8,6.5,4.1,���쐼,7.9,��
2013/02/02,13:50,3.2,5.7,6.3,6.1,6.3,2.8,6.5,4.1,���쐼,7.2,��
2013/02/02,14:00,3.2,5.7,6.3,6.1,6.3,2.8,6.5,4.1,���쐼,7.1,��
2013/02/02,14:10,3.2,5.7,6.3,6.1,6.3,2.8,6.5,4.1,��,8.3,��
2013/02/02,14:20,3.2,5.7,6.3,6.1,6.3,2.8,6.5,4.1,���쐼,7.7,��
2013/02/02,14:30,3.2,5.7,6.3,6.1,6.3,2.8,6.5,4.1,��,8.5,��
2013/02/02,14:40,3.2,5.7,6.3,6.1,6.3,2.8,6.5,4.1,��,6.7,��
2013/02/02,14:50,3.2,5.7,6.3,6.1,6.3,2.8,6.5,4.1,��,7.8,��
2013/02/02,15:00,3.2,5.7,6.3,6.1,6.3,2.8,6.6,4.1,���k��,7.5,��
2013/02/02,15:10,3.2,5.7,6.4,6.1,6.3,2.8,6.6,4.1,���k��,8.5,��
2013/02/02,15:20,3.2,5.7,6.4,6.1,6.3,2.8,6.5,4.1,���k��,8.2,��
2013/02/02,15:30,3.2,5.7,6.4,6.1,6.3,2.8,6.6,4.1,���k��,10.8,��
2013/02/02,15:40,3.2,5.7,6.4,6.1,6.3,2.8,6.6,4.1,���k��,9.6,��
2013/02/02,15:50,3.2,5.7,6.4,6.1,6.3,2.8,6.6,4.1,���k��,8.2,��
2013/02/02,16:00,3.2,5.7,6.4,6.1,6.3,2.8,6.6,4.1,�k��,9.6,��
2013/02/02,16:10,3.2,5.7,6.4,6.1,6.3,2.8,6.6,4.1,�k��,8.9,��
2013/02/02,16:20,3.2,5.7,6.4,6.1,6.3,2.8,6.6,4.1,�k��,9.4,��
2013/02/02,16:30,3.2,5.7,6.4,6.1,6.3,2.8,6.6,4.1,�k��,8.8,��
2013/02/02,16:40,3.2,5.7,6.4,6.1,6.3,2.8,6.6,4.1,�k��,7.8,��
2013/02/02,16:50,3.2,5.7,6.4,6.1,6.3,2.8,6.6,4.1,�k��,7.8,��
2013/02/02,17:00,3.2,5.7,6.4,6.1,6.3,2.8,6.6,4.1,���k��,6.4,��
2013/02/02,17:10,3.2,5.7,6.4,6.1,6.3,2.8,6.6,4.1,���k��,6.5,��
2013/02/02,17:20,3.2,5.7,6.4,6.1,6.3,2.8,6.6,4.1,���k��,6.1,��
2013/02/02,17:30,3.2,5.7,6.4,6.1,6.3,2.8,6.6,4.1,���k��,6.0,��
2013/02/02,17:40,3.2,5.7,6.4,6.1,6.3,2.8,6.6,4.1,���k��,8.8,��
2013/02/02,17:50,3.2,5.7,6.5,6.1,6.3,2.8,6.6,4.1,��,8.8,��
2013/02/02,18:00,3.2,5.7,6.5,6.1,6.3,2.8,6.6,4.1,���k��,9.3,��
2013/02/02,18:10,3.2,5.7,6.5,6.1,6.3,2.8,6.6,4.1,��,8.2,��
2013/02/02,18:20,3.1,5.7,6.5,6.1,6.3,2.8,6.6,4.1,���k��,10.1,��
2013/02/02,18:30,3.2,5.7,6.5,6.1,6.3,2.8,6.6,4.1,��,11.3,��
2013/02/02,18:40,3.2,5.7,6.5,6.1,6.3,2.8,6.6,4.1,��,12.7,��
2013/02/02,18:50,3.1,5.7,6.5,6.1,6.3,2.8,6.6,4.1,��,11.6,��
2013/02/02,19:00,3.2,5.7,6.5,6.1,6.3,2.8,6.6,4.1,��,12.1,��
2013/02/02,19:10,3.2,5.7,6.5,6.1,6.3,2.8,6.6,4.1,��,10.7,��
2013/02/02,19:20,3.1,5.7,6.5,6.1,6.3,2.8,6.6,4.1,��,11.2,��
2013/02/02,19:30,3.2,5.7,6.5,6.1,6.3,2.8,6.6,4.1,��,11.5,��
2013/02/02,19:40,3.1,5.7,6.5,6.1,6.3,2.8,6.6,4.1,��,14.5,��
2013/02/02,19:50,3.1,5.7,6.5,6.1,6.3,2.8,6.6,4.1,���k��,12.1,��
2013/02/02,20:00,3.1,5.7,6.5,6.1,6.3,2.8,6.6,4.1,��,9.6,��
2013/02/02,20:10,3.2,5.7,6.5,6.1,6.3,2.8,6.6,4.1,���k��,11.8,��
2013/02/02,20:20,3.1,5.7,6.5,6.1,6.3,2.8,6.6,4.1,���k��,8.8,��
2013/02/02,20:30,3.2,5.7,6.5,6.1,6.3,2.8,6.6,4.1,���k��,9.6,��
2013/02/02,20:40,3.2,5.7,6.5,6.1,6.3,2.8,6.6,4.1,���k��,9.4,��
2013/02/02,20:50,3.2,5.7,6.5,6.1,6.3,2.8,6.6,4.1,���k��,8.5,��
2013/02/02,21:00,3.2,5.7,6.5,6.1,6.3,2.8,6.6,4.1,���k��,9.6,��
2013/02/02,21:10,3.2,5.7,6.5,6.1,6.3,2.8,6.6,4.1,���k��,10.2,��
2013/02/02,21:20,3.2,5.7,6.5,6.1,6.3,2.8,6.6,4.1,���k��,7.7,��
2013/02/02,21:30,3.2,5.7,6.5,6.1,6.3,2.8,6.6,4.1,���k��,9.0,��
2013/02/02,21:40,3.1,5.7,6.5,6.1,6.3,2.8,6.6,4.1,���k��,6.7,��
2013/02/02,21:50,3.1,5.7,6.5,6.1,6.3,2.8,6.6,4.1,�k��,6.5,��
2013/02/02,22:00,3.1,5.7,6.5,6.1,6.3,2.8,6.6,4.1,���k��,6.3,��
2013/02/02,22:10,3.1,5.7,6.5,6.1,6.3,2.8,6.6,4.1,���k��,9.0,��
2013/02/02,22:20,3.2,5.7,6.5,6.1,6.3,2.8,6.6,4.1,���k��,6.8,��
2013/02/02,22:30,3.1,5.7,6.5,6.1,6.3,2.8,6.6,4.1,���k��,9.3,��
2013/02/02,22:40,3.1,5.7,6.5,6.1,6.3,2.8,6.6,4.1,���k��,5.0,��
2013/02/02,22:50,3.1,5.7,6.5,6.1,6.3,2.8,6.6,4.1,���k��,4.5,��
2013/02/02,23:00,3.1,5.7,6.5,6.1,6.3,2.8,6.6,4.1,���k��,6.0,��
2013/02/02,23:10,3.1,5.7,6.5,6.1,6.3,2.8,6.6,4.1,���k��,7.5,��
2013/02/02,23:20,3.1,5.7,6.5,6.1,6.3,2.8,6.6,4.1,���k��,10.2,��
2013/02/02,23:30,3.1,5.7,6.5,6.1,6.3,2.8,6.6,4.1,���k��,14.0,��
2013/02/02,23:40,3.1,5.7,6.5,6.1,6.3,2.8,6.6,4.1,���k��,12.1,��
2013/02/02,23:50,3.1,5.7,6.5,6.1,6.3,2.8,6.6,4.1,���k��,12.1,��
